This demonstration page uses our WeatherBlox Daily Observations layout. Learn more.

Left ArrowRight Arrow

Hourly Observations for November 9, 2015

Temp ( °F °C ) Dew Point ( °F °C ) Humidity (%) Winds ( mph kmh ) Pressure ( in mb ) Visibility ( mi km ) Precip ( " mm )
12:53 am 00:53 Clear 42 5.6 32 0 68 68 S 9 15 30.09 1019 10 16 0.00 0.00
1:53 am 01:53 Clear 41 5 32 0 70 70 S 8 13 30.08 1019 10 16 0.00 0.00
2:53 am 02:53 Clear 41 5 32 0 70 70 S 8 13 30.08 1019 10 16 0.00 0.00
3:53 am 03:53 Clear 39 3.9 32 0 76 76 S 7 11 30.07 1018 10 16 0.00 0.00
4:53 am 04:53 Clear 39 3.9 32 0 76 76 S 8 13 30.06 1018 10 16 0.00 0.00
5:53 am 05:53 Clear 38 3.3 31 -0.6 76 76 S 7 11 30.07 1018 10 16 0.00 0.00
6:53 am 06:53 Clear 38 3.3 31 -0.6 76 76 S 7 11 30.07 1018 10 16 0.00 0.00
7:53 am 07:53 Sunny 38 3.3 31 -0.6 76 76 S 9 15 30.09 1019 10 16 0.00 0.00
8:53 am 08:53 Sunny 43 6.1 33 0.6 68 68 S 9 15 30.09 1019 10 16 0.00 0.00
9:53 am 09:53 Sunny 50 10 35 1.7 57 57 S 10 17 30.09 1019 10 16 0.00 0.00
10:53 am 10:53 Sunny 54 12.2 36 2.2 51 51 S 14 22 30.07 1018 10 16 0.00 0.00
11:53 am 11:53 Sunny 57 13.9 36 2.2 45 45 SSW 15 24 30.04 1017 10 16 0.00 0.00
12:53 pm 12:53 Sunny 60 15.6 37 2.8 42 42 S 13 20 30.01 1016 10 16 0.00 0.00
1:53 pm 13:53 Sunny 62 16.7 37 2.8 40 40 S 13 20 29.99 1016 10 16 0.00 0.00
2:53 pm 14:53 Sunny 63 17.2 37 2.8 38 38 S 18 30 29.97 1015 10 16 0.00 0.00
3:53 pm 15:53 Sunny 62 16.7 36 2.2 38 38 S 14 22 29.96 1015 10 16 0.00 0.00
4:53 pm 16:53 Sunny 60 15.6 36 2.2 41 41 S 12 19 29.96 1015 10 16 0.00 0.00
5:53 pm 17:53 Clear 55 12.8 36 2.2 49 49 SSE 9 15 29.96 1015 10 16 0.00 0.00
6:53 pm 18:53 Clear 52 11.1 36 2.2 55 55 SSE 10 17 29.98 1015 10 16 0.00 0.00
7:53 pm 19:53 Clear 50 10 36 2.2 59 59 SSE 10 17 29.99 1016 10 16 0.00 0.00
8:53 pm 20:53 Clear 50 10 36 2.2 59 59 SSE 13 20 29.97 1015 10 16 0.00 0.00
9:53 pm 21:53 Clear 49 9.4 35 1.7 59 59 S 9 15 29.96 1015 10 16 0.00 0.00
10:53 pm 22:53 Clear 47 8.3 35 1.7 63 63 SSE 9 15 29.96 1015 10 16 0.00 0.00
11:53 pm 23:53 Clear 45 7.2 34 1.1 66 66 SSE 8 13 29.95 1014 10 16 0.00 0.00

Powered by AerisWeather